Orbital Elements at Epoch 2459200.5 (2020-Dec-17.0) TDB
Reference: JPL 20 (heliocentric ecliptic J2000)
Element | Value | Uncertainty (1-sigma) | Units |
e | .09872877461866332 | 3.494e-08 | |
a | 2.63888093062033 | 1.7555e-08 | au |
q | 2.378347449975627 | 9.6468e-08 | au |
i | 5.308220063318971 | 4.5218e-06 | deg |
node | 10.33929710860246 | 4.4202e-05 | deg |
peri | 209.8549366348646 | 5.1978e-05 | deg |
M | 245.6222287253797 | 3.0978e-05 | deg |
tp | 2459697.970403650113 (2022-Apr-28.47040365) | 0.00013755 | TDB |
period | 1565.770545432716 4.29 | 1.5624e-05 4.278e-08 | d yr |
n | .2299187457894799 | 2.2943e-09 | deg/d |
Q | 2.899414411265034 | 1.9288e-08 | au |
|
| | Orbit Determination Parameters
Additional Information
|